Year,Month,Day,Hour,Minute,Value (Times are PST for windgust in km/hr)
2008,06,13,00,00,3.20
2008,06,13,00,01,4.80
2008,06,13,00,02,4.80
2008,06,13,00,03,3.20
2008,06,13,00,04,3.20
2008,06,13,00,05,3.20
2008,06,13,00,06,3.20
2008,06,13,00,07,0.00
2008,06,13,00,08,0.00
2008,06,13,00,09,0.00
2008,06,13,00,10,6.40
2008,06,13,00,11,4.80
2008,06,13,00,12,1.60
2008,06,13,00,13,0.00
2008,06,13,00,14,0.00
2008,06,13,00,15,0.00
2008,06,13,00,16,1.60
2008,06,13,00,17,0.00
2008,06,13,00,18,3.20
2008,06,13,00,19,3.20
2008,06,13,00,20,1.60
2008,06,13,00,21,3.20
2008,06,13,00,22,3.20
2008,06,13,00,23,3.20
2008,06,13,00,24,4.80
2008,06,13,00,25,1.60
2008,06,13,00,26,3.20
2008,06,13,00,27,4.80
2008,06,13,00,28,3.20
2008,06,13,00,29,1.60
2008,06,13,00,30,3.20
2008,06,13,00,31,4.80
2008,06,13,00,32,3.20
2008,06,13,00,33,8.10
2008,06,13,00,34,3.20
2008,06,13,00,35,8.10
2008,06,13,00,36,6.40
2008,06,13,00,37,11.30
2008,06,13,00,38,11.30
2008,06,13,00,39,11.30
2008,06,13,00,40,8.10
2008,06,13,00,41,4.80
2008,06,13,00,42,8.10
2008,06,13,00,43,11.30
2008,06,13,00,44,8.10
2008,06,13,00,45,4.80
2008,06,13,00,46,4.80
2008,06,13,00,47,11.30
2008,06,13,00,48,8.10
2008,06,13,00,49,8.10
2008,06,13,00,50,14.50
2008,06,13,00,51,9.60
2008,06,13,00,52,12.90
2008,06,13,00,53,17.70
2008,06,13,00,54,14.50
2008,06,13,00,55,11.30
2008,06,13,00,56,9.60
2008,06,13,00,57,11.30
2008,06,13,00,58,11.30
2008,06,13,00,59,8.10
2008,06,13,01,00,6.40
2008,06,13,01,01,8.10
2008,06,13,01,02,4.80
2008,06,13,01,03,4.80
2008,06,13,01,04,3.20
2008,06,13,01,05,3.20
2008,06,13,01,06,6.40
2008,06,13,01,07,6.40
2008,06,13,01,08,6.40
2008,06,13,01,09,4.80
2008,06,13,01,10,4.80
2008,06,13,01,11,0.00
2008,06,13,01,12,0.00
2008,06,13,01,13,3.20
2008,06,13,01,14,3.20
2008,06,13,01,15,0.00
2008,06,13,01,16,0.00
2008,06,13,01,17,3.20
2008,06,13,01,18,4.80
2008,06,13,01,19,4.80
2008,06,13,01,20,6.40
2008,06,13,01,21,8.10
2008,06,13,01,22,8.10
2008,06,13,01,23,6.40
2008,06,13,01,24,4.80
2008,06,13,01,25,4.80
2008,06,13,01,26,8.10
2008,06,13,01,27,6.40
2008,06,13,01,28,3.20
2008,06,13,01,29,6.40
2008,06,13,01,30,6.40
2008,06,13,01,31,6.40
2008,06,13,01,32,3.20
2008,06,13,01,33,0.00
2008,06,13,01,34,0.00
2008,06,13,01,35,1.60
2008,06,13,01,36,3.20
2008,06,13,01,37,1.60
2008,06,13,01,38,1.60
2008,06,13,01,39,1.60
2008,06,13,01,40,0.00
2008,06,13,01,41,3.20
2008,06,13,01,42,3.20
2008,06,13,01,43,4.80
2008,06,13,01,44,3.20
2008,06,13,01,45,3.20
2008,06,13,01,46,4.80
2008,06,13,01,47,4.80
2008,06,13,01,48,3.20
2008,06,13,01,49,3.20
2008,06,13,01,50,3.20
2008,06,13,01,51,4.80
2008,06,13,01,52,4.80
2008,06,13,01,53,4.80
2008,06,13,01,54,4.80
2008,06,13,01,55,6.40
2008,06,13,01,56,6.40
2008,06,13,01,57,6.40
2008,06,13,01,58,6.40
2008,06,13,01,59,6.40
2008,06,13,02,00,6.40
2008,06,13,02,01,6.40
2008,06,13,02,02,6.40
2008,06,13,02,03,4.80
2008,06,13,02,04,6.40
2008,06,13,02,05,4.80
2008,06,13,02,06,4.80
2008,06,13,02,07,3.20
2008,06,13,02,08,3.20
2008,06,13,02,09,3.20
2008,06,13,02,10,3.20
2008,06,13,02,11,3.20
2008,06,13,02,12,3.20
2008,06,13,02,13,3.20
2008,06,13,02,14,1.60
2008,06,13,02,15,3.20
2008,06,13,02,16,6.40
2008,06,13,02,17,4.80
2008,06,13,02,18,6.40
2008,06,13,02,19,8.10
2008,06,13,02,20,8.10
2008,06,13,02,21,9.60
2008,06,13,02,22,9.60
2008,06,13,02,23,9.60
2008,06,13,02,24,9.60
2008,06,13,02,25,9.60
2008,06,13,02,26,11.30
2008,06,13,02,27,14.50
2008,06,13,02,28,12.90
2008,06,13,02,29,8.10
2008,06,13,02,30,4.80
2008,06,13,02,31,6.40
2008,06,13,02,32,8.10
2008,06,13,02,33,9.60
2008,06,13,02,34,4.80
2008,06,13,02,35,6.40
2008,06,13,02,36,8.10
2008,06,13,02,37,8.10
2008,06,13,02,38,1.60
2008,06,13,02,39,1.60
2008,06,13,02,40,0.00
2008,06,13,02,41,0.00
2008,06,13,02,42,0.00
2008,06,13,02,43,0.00
2008,06,13,02,44,0.00
2008,06,13,02,45,1.60
2008,06,13,02,46,0.00
2008,06,13,02,47,1.60
2008,06,13,02,48,0.00
2008,06,13,02,49,0.00
2008,06,13,02,50,0.00
2008,06,13,02,51,1.60
2008,06,13,02,52,0.00
2008,06,13,02,53,0.00
2008,06,13,02,54,1.60
2008,06,13,02,55,1.60
2008,06,13,02,56,1.60
2008,06,13,02,57,1.60
2008,06,13,02,58,1.60
2008,06,13,02,59,1.60
2008,06,13,03,00,0.00
2008,06,13,03,01,0.00
2008,06,13,03,02,0.00
2008,06,13,03,03,0.00
2008,06,13,03,04,0.00
2008,06,13,03,05,0.00
2008,06,13,03,06,0.00
2008,06,13,03,07,1.60
2008,06,13,03,08,3.20
2008,06,13,03,09,3.20
2008,06,13,03,10,3.20
2008,06,13,03,11,6.40
2008,06,13,03,12,3.20
2008,06,13,03,13,4.80
2008,06,13,03,14,3.20
2008,06,13,03,15,4.80
2008,06,13,03,16,4.80
2008,06,13,03,17,6.40
2008,06,13,03,18,3.20
2008,06,13,03,19,3.20
2008,06,13,03,20,3.20
2008,06,13,03,21,3.20
2008,06,13,03,22,1.60
2008,06,13,03,23,3.20
2008,06,13,03,24,4.80
2008,06,13,03,25,4.80
2008,06,13,03,26,3.20
2008,06,13,03,27,3.20
2008,06,13,03,28,1.60
2008,06,13,03,29,0.00
2008,06,13,03,30,1.60
2008,06,13,03,31,1.60
2008,06,13,03,32,0.00
2008,06,13,03,33,3.20
2008,06,13,03,34,3.20
2008,06,13,03,35,4.80
2008,06,13,03,36,1.60
2008,06,13,03,37,0.00
2008,06,13,03,38,1.60
2008,06,13,03,39,4.80
2008,06,13,03,40,6.40
2008,06,13,03,41,1.60
2008,06,13,03,42,0.00
2008,06,13,03,43,3.20
2008,06,13,03,44,3.20
2008,06,13,03,45,3.20
2008,06,13,03,46,3.20
2008,06,13,03,47,4.80
2008,06,13,03,48,3.20
2008,06,13,03,49,3.20
2008,06,13,03,50,4.80
2008,06,13,03,51,3.20
2008,06,13,03,52,0.00
2008,06,13,03,53,3.20
2008,06,13,03,54,6.40
2008,06,13,03,55,4.80
2008,06,13,03,56,3.20
2008,06,13,03,57,6.40
2008,06,13,03,58,6.40
2008,06,13,03,59,8.10
2008,06,13,04,00,8.10
2008,06,13,04,01,6.40
2008,06,13,04,02,6.40
2008,06,13,04,03,6.40
2008,06,13,04,04,6.40
2008,06,13,04,05,0.00
2008,06,13,04,06,4.80
2008,06,13,04,07,4.80
2008,06,13,04,08,3.20
2008,06,13,04,09,3.20
2008,06,13,04,10,3.20
2008,06,13,04,11,3.20
2008,06,13,04,12,1.60
2008,06,13,04,13,0.00
2008,06,13,04,14,3.20
2008,06,13,04,15,1.60
2008,06,13,04,16,3.20
2008,06,13,04,17,3.20
2008,06,13,04,18,0.00
2008,06,13,04,19,1.60
2008,06,13,04,20,1.60
2008,06,13,04,21,4.80
2008,06,13,04,22,1.60
2008,06,13,04,23,6.40
2008,06,13,04,24,8.10
2008,06,13,04,25,4.80
2008,06,13,04,26,4.80
2008,06,13,04,27,3.20
2008,06,13,04,28,3.20
2008,06,13,04,29,4.80
2008,06,13,04,30,3.20
2008,06,13,04,31,3.20
2008,06,13,04,32,4.80
2008,06,13,04,33,3.20
2008,06,13,04,34,3.20
2008,06,13,04,35,3.20
2008,06,13,04,36,3.20
2008,06,13,04,37,1.60
2008,06,13,04,38,3.20
2008,06,13,04,39,3.20
2008,06,13,04,40,3.20
2008,06,13,04,41,1.60
2008,06,13,04,42,3.20
2008,06,13,04,43,6.40
2008,06,13,04,44,6.40
2008,06,13,04,45,8.10
2008,06,13,04,46,9.60
2008,06,13,04,47,3.20
2008,06,13,04,48,4.80
2008,06,13,04,49,4.80
2008,06,13,04,50,1.60
2008,06,13,04,51,3.20
2008,06,13,04,52,3.20
2008,06,13,04,53,3.20
2008,06,13,04,54,3.20
2008,06,13,04,55,1.60
2008,06,13,04,56,4.80
2008,06,13,04,57,3.20
2008,06,13,04,58,3.20
2008,06,13,04,59,1.60
2008,06,13,05,00,3.20
2008,06,13,05,01,9.60
2008,06,13,05,02,9.60
2008,06,13,05,03,6.40
2008,06,13,05,04,3.20
2008,06,13,05,05,3.20
2008,06,13,05,06,8.10
2008,06,13,05,07,3.20
2008,06,13,05,08,6.40
2008,06,13,05,09,6.40
2008,06,13,05,10,4.80
2008,06,13,05,11,1.60
2008,06,13,05,12,1.60
2008,06,13,05,13,4.80
2008,06,13,05,14,4.80
2008,06,13,05,15,6.40
2008,06,13,05,16,8.10
2008,06,13,05,17,8.10
2008,06,13,05,18,6.40
2008,06,13,05,19,3.20
2008,06,13,05,20,4.80
2008,06,13,05,21,1.60
2008,06,13,05,22,3.20
2008,06,13,05,23,4.80
2008,06,13,05,24,8.10
2008,06,13,05,25,8.10
2008,06,13,05,26,8.10
2008,06,13,05,27,8.10
2008,06,13,05,28,6.40
2008,06,13,05,29,3.20
2008,06,13,05,30,8.10
2008,06,13,05,31,4.80
2008,06,13,05,32,8.10
2008,06,13,05,33,8.10
2008,06,13,05,34,3.20
2008,06,13,05,35,4.80
2008,06,13,05,36,6.40
2008,06,13,05,37,4.80
2008,06,13,05,38,9.60
2008,06,13,05,39,6.40
2008,06,13,05,40,3.20
2008,06,13,05,41,8.10
2008,06,13,05,42,4.80
2008,06,13,05,43,4.80
2008,06,13,05,44,3.20
2008,06,13,05,45,4.80
2008,06,13,05,46,8.10
2008,06,13,05,47,6.40
2008,06,13,05,48,4.80
2008,06,13,05,49,4.80
2008,06,13,05,50,3.20
2008,06,13,05,51,3.20
2008,06,13,05,52,1.60
2008,06,13,05,53,1.60
2008,06,13,05,54,0.00
2008,06,13,05,55,1.60
2008,06,13,05,56,3.20
2008,06,13,05,57,3.20
2008,06,13,05,58,1.60
2008,06,13,05,59,1.60
2008,06,13,06,00,1.60
2008,06,13,06,01,3.20
2008,06,13,06,02,4.80
2008,06,13,06,03,4.80
2008,06,13,06,04,1.60
2008,06,13,06,05,3.20
2008,06,13,06,06,0.00
2008,06,13,06,07,4.80
2008,06,13,06,08,3.20
2008,06,13,06,09,3.20
2008,06,13,06,10,1.60
2008,06,13,06,11,3.20
2008,06,13,06,12,1.60
2008,06,13,06,13,4.80
2008,06,13,06,14,4.80
2008,06,13,06,15,3.20
2008,06,13,06,16,4.80
2008,06,13,06,17,3.20
2008,06,13,06,18,0.00
2008,06,13,06,19,4.80
2008,06,13,06,20,4.80
2008,06,13,06,21,3.20
2008,06,13,06,22,3.20
2008,06,13,06,23,3.20
2008,06,13,06,24,3.20
2008,06,13,06,25,3.20
2008,06,13,06,26,3.20
2008,06,13,06,27,1.60
2008,06,13,06,28,1.60
2008,06,13,06,29,1.60
2008,06,13,06,30,4.80
2008,06,13,06,31,3.20
2008,06,13,06,32,3.20
2008,06,13,06,33,1.60
2008,06,13,06,34,1.60
2008,06,13,06,35,0.00
2008,06,13,06,36,3.20
2008,06,13,06,37,1.60
2008,06,13,06,38,0.00
2008,06,13,06,39,0.00
2008,06,13,06,40,1.60
2008,06,13,06,41,1.60
2008,06,13,06,42,1.60
2008,06,13,06,43,1.60
2008,06,13,06,44,3.20
2008,06,13,06,45,0.00
2008,06,13,06,46,0.00
2008,06,13,06,47,0.00
2008,06,13,06,48,3.20
2008,06,13,06,49,1.60
2008,06,13,06,50,0.00
2008,06,13,06,51,0.00
2008,06,13,06,52,0.00
2008,06,13,06,53,1.60
2008,06,13,06,54,0.00
2008,06,13,06,55,0.00
2008,06,13,06,56,3.20
2008,06,13,06,57,3.20
2008,06,13,06,58,1.60
2008,06,13,06,59,1.60
2008,06,13,07,00,0.00
2008,06,13,07,01,3.20
2008,06,13,07,02,1.60
2008,06,13,07,03,0.00
2008,06,13,07,04,1.60
2008,06,13,07,05,1.60
2008,06,13,07,06,0.00
2008,06,13,07,07,1.60
2008,06,13,07,08,3.20
2008,06,13,07,09,1.60
2008,06,13,07,10,1.60
2008,06,13,07,11,3.20
2008,06,13,07,12,1.60
2008,06,13,07,13,4.80
2008,06,13,07,14,4.80
2008,06,13,07,15,3.20
2008,06,13,07,16,3.20
2008,06,13,07,17,3.20
2008,06,13,07,18,1.60
2008,06,13,07,19,3.20
2008,06,13,07,20,3.20
2008,06,13,07,21,3.20
2008,06,13,07,22,4.80
2008,06,13,07,23,4.80
2008,06,13,07,24,3.20
2008,06,13,07,25,4.80
2008,06,13,07,26,6.40
2008,06,13,07,27,4.80
2008,06,13,07,28,4.80
2008,06,13,07,29,9.60
2008,06,13,07,30,8.10
2008,06,13,07,31,8.10
2008,06,13,07,32,8.10
2008,06,13,07,33,6.40
2008,06,13,07,34,6.40
2008,06,13,07,35,11.30
2008,06,13,07,36,11.30
2008,06,13,07,37,16.10
2008,06,13,07,38,19.30
2008,06,13,07,39,8.10
2008,06,13,07,40,11.30
2008,06,13,07,41,11.30
2008,06,13,07,42,12.90
2008,06,13,07,43,12.90
2008,06,13,07,44,16.10
2008,06,13,07,45,11.30
2008,06,13,07,46,9.60
2008,06,13,07,47,14.50
2008,06,13,07,48,9.60
2008,06,13,07,49,11.30
2008,06,13,07,50,9.60
2008,06,13,07,51,16.10
2008,06,13,07,52,17.70
2008,06,13,07,53,20.90
2008,06,13,07,54,19.30
2008,06,13,07,55,8.10
2008,06,13,07,56,9.60
2008,06,13,07,57,11.30
2008,06,13,07,58,9.60
2008,06,13,07,59,11.30
2008,06,13,08,00,8.10
2008,06,13,08,01,9.60
2008,06,13,08,02,16.10
2008,06,13,08,03,19.30
2008,06,13,08,04,20.90
2008,06,13,08,05,11.30
2008,06,13,08,06,22.50
2008,06,13,08,07,17.70
2008,06,13,08,08,17.70
2008,06,13,08,09,17.70
2008,06,13,08,10,22.50
2008,06,13,08,11,9.60
2008,06,13,08,12,16.10
2008,06,13,08,13,11.30
2008,06,13,08,14,9.60
2008,06,13,08,15,16.10
2008,06,13,08,16,25.70
2008,06,13,08,17,17.70
2008,06,13,08,18,16.10
2008,06,13,08,19,14.50
2008,06,13,08,20,16.10
2008,06,13,08,21,19.30
2008,06,13,08,22,22.50
2008,06,13,08,23,22.50
2008,06,13,08,24,20.90
2008,06,13,08,25,24.20
2008,06,13,08,26,27.40
2008,06,13,08,27,20.90
2008,06,13,08,28,12.90
2008,06,13,08,29,11.30
2008,06,13,08,30,14.50
2008,06,13,08,31,19.30
2008,06,13,08,32,19.30
2008,06,13,08,33,12.90
2008,06,13,08,34,16.10
2008,06,13,08,35,14.50
2008,06,13,08,36,19.30
2008,06,13,08,37,14.50
2008,06,13,08,38,16.10
2008,06,13,08,39,8.10
2008,06,13,08,40,19.30
2008,06,13,08,41,16.10
2008,06,13,08,42,22.50
2008,06,13,08,43,14.50
2008,06,13,08,44,19.30
2008,06,13,08,45,20.90
2008,06,13,08,46,16.10
2008,06,13,08,47,19.30
2008,06,13,08,48,17.70
2008,06,13,08,49,16.10
2008,06,13,08,50,22.50
2008,06,13,08,51,16.10
2008,06,13,08,52,19.30
2008,06,13,08,53,16.10
2008,06,13,08,54,8.10
2008,06,13,08,55,16.10
2008,06,13,08,56,14.50
2008,06,13,08,57,17.70
2008,06,13,08,58,24.20
2008,06,13,08,59,17.70
2008,06,13,09,00,19.30
2008,06,13,09,01,19.30
2008,06,13,09,02,6.40
2008,06,13,09,03,20.90
2008,06,13,09,04,14.50
2008,06,13,09,05,8.10
2008,06,13,09,06,17.70
2008,06,13,09,07,16.10
2008,06,13,09,08,19.30
2008,06,13,09,09,27.40
2008,06,13,09,10,19.30
2008,06,13,09,11,12.90
2008,06,13,09,12,11.30
2008,06,13,09,13,11.30
2008,06,13,09,14,8.10
2008,06,13,09,15,11.30
2008,06,13,09,16,6.40
2008,06,13,09,17,20.90
2008,06,13,09,18,14.50
2008,06,13,09,19,25.70
2008,06,13,09,20,22.50
2008,06,13,09,21,17.70
2008,06,13,09,22,20.90
2008,06,13,09,23,9.60
2008,06,13,09,24,16.10
2008,06,13,09,25,24.20
2008,06,13,09,26,22.50
2008,06,13,09,27,27.40
2008,06,13,09,28,8.10
2008,06,13,09,29,11.30
2008,06,13,09,30,9.60
2008,06,13,09,31,11.30
2008,06,13,09,32,14.50
2008,06,13,09,33,17.70
2008,06,13,09,34,17.70
2008,06,13,09,35,22.50
2008,06,13,09,36,19.30
2008,06,13,09,37,14.50
2008,06,13,09,38,16.10
2008,06,13,09,39,25.70
2008,06,13,09,40,20.90
2008,06,13,09,41,20.90
2008,06,13,09,42,19.30
2008,06,13,09,43,19.30
2008,06,13,09,44,24.20
2008,06,13,09,45,16.10
2008,06,13,09,46,20.90
2008,06,13,09,47,12.90
2008,06,13,09,48,20.90
2008,06,13,09,49,11.30
2008,06,13,09,50,11.30
2008,06,13,09,51,14.50
2008,06,13,09,52,14.50
2008,06,13,09,53,12.90
2008,06,13,09,54,19.30
2008,06,13,09,55,17.70
2008,06,13,09,56,17.70
2008,06,13,09,57,19.30
2008,06,13,09,58,16.10
2008,06,13,09,59,19.30
2008,06,13,10,00,14.50
2008,06,13,10,01,14.50
2008,06,13,10,02,16.10
2008,06,13,10,03,17.70
2008,06,13,10,04,11.30
2008,06,13,10,05,22.50
2008,06,13,10,06,11.30
2008,06,13,10,07,11.30
2008,06,13,10,08,9.60
2008,06,13,10,09,11.30
2008,06,13,10,10,16.10
2008,06,13,10,11,16.10
2008,06,13,10,12,19.30
2008,06,13,10,13,16.10
2008,06,13,10,14,22.50
2008,06,13,10,15,25.70
2008,06,13,10,16,25.70
2008,06,13,10,17,16.10
2008,06,13,10,18,29.00
2008,06,13,10,19,14.50
2008,06,13,10,20,22.50
2008,06,13,10,21,17.70
2008,06,13,10,22,14.50
2008,06,13,10,23,20.90
2008,06,13,10,24,24.20
2008,06,13,10,25,25.70
2008,06,13,10,26,27.40
2008,06,13,10,27,30.60
2008,06,13,10,28,27.40
2008,06,13,10,29,30.60
2008,06,13,10,30,17.70
2008,06,13,10,31,17.70
2008,06,13,10,32,24.20
2008,06,13,10,33,25.70
2008,06,13,10,34,19.30
2008,06,13,10,35,30.60
2008,06,13,10,36,32.20
2008,06,13,10,37,32.20
2008,06,13,10,38,24.20
2008,06,13,10,39,38.60
2008,06,13,10,40,33.80
2008,06,13,10,41,25.70
2008,06,13,10,42,35.40
2008,06,13,10,43,32.20
2008,06,13,10,44,41.80
2008,06,13,10,45,25.70
2008,06,13,10,46,30.60
2008,06,13,10,47,14.50
2008,06,13,10,48,29.00
2008,06,13,10,49,32.20
2008,06,13,10,50,29.00
2008,06,13,10,51,29.00
2008,06,13,10,52,27.40
2008,06,13,10,53,35.40
2008,06,13,10,54,20.90
2008,06,13,10,55,14.50
2008,06,13,10,56,19.30
2008,06,13,10,57,19.30
2008,06,13,10,58,19.30
2008,06,13,10,59,17.70
2008,06,13,11,00,11.30
2008,06,13,11,01,16.10
2008,06,13,11,02,22.50
2008,06,13,11,03,25.70
2008,06,13,11,04,27.40
2008,06,13,11,05,25.70
2008,06,13,11,06,32.20
2008,06,13,11,07,20.90
2008,06,13,11,08,25.70
2008,06,13,11,09,29.00
2008,06,13,11,10,30.60
2008,06,13,11,11,25.70
2008,06,13,11,12,27.40
2008,06,13,11,13,41.80
2008,06,13,11,14,38.60
2008,06,13,11,15,33.80
2008,06,13,11,16,17.70
2008,06,13,11,17,32.20
2008,06,13,11,18,32.20
2008,06,13,11,19,32.20
2008,06,13,11,20,11.30
2008,06,13,11,21,27.40
2008,06,13,11,22,25.70
2008,06,13,11,23,20.90
2008,06,13,11,24,9.60
2008,06,13,11,25,30.60
2008,06,13,11,26,20.90
2008,06,13,11,27,14.50
2008,06,13,11,28,24.20
2008,06,13,11,29,19.30
2008,06,13,11,30,16.10
2008,06,13,11,31,16.10
2008,06,13,11,32,22.50
2008,06,13,11,33,17.70
2008,06,13,11,34,25.70
2008,06,13,11,35,32.20
2008,06,13,11,36,22.50
2008,06,13,11,37,25.70
2008,06,13,11,38,11.30
2008,06,13,11,39,22.50
2008,06,13,11,40,14.50
2008,06,13,11,41,14.50
2008,06,13,11,42,8.10
2008,06,13,11,43,22.50
2008,06,13,11,44,24.20
2008,06,13,11,45,24.20
2008,06,13,11,46,24.20
2008,06,13,11,47,25.70
2008,06,13,11,48,17.70
2008,06,13,11,49,25.70
2008,06,13,11,50,27.40
2008,06,13,11,51,25.70
2008,06,13,11,52,20.90
2008,06,13,11,53,17.70
2008,06,13,11,54,20.90
2008,06,13,11,55,14.50
2008,06,13,11,56,24.20
2008,06,13,11,57,14.50
2008,06,13,11,58,20.90
2008,06,13,11,59,27.40
2008,06,13,12,00,30.60
2008,06,13,12,01,22.50
2008,06,13,12,02,33.80
2008,06,13,12,03,19.30
2008,06,13,12,04,25.70
2008,06,13,12,05,27.40
2008,06,13,12,06,30.60
2008,06,13,12,07,35.40
2008,06,13,12,08,32.20
2008,06,13,12,09,22.50
2008,06,13,12,10,22.50
2008,06,13,12,11,20.90
2008,06,13,12,12,20.90
2008,06,13,12,13,16.10
2008,06,13,12,14,27.40
2008,06,13,12,15,24.20
2008,06,13,12,16,25.70
2008,06,13,12,17,29.00
2008,06,13,12,18,19.30
2008,06,13,12,19,25.70
2008,06,13,12,20,25.70
2008,06,13,12,21,19.30
2008,06,13,12,22,22.50
2008,06,13,12,23,30.60
2008,06,13,12,24,25.70
2008,06,13,12,25,25.70
2008,06,13,12,26,24.20
2008,06,13,12,27,27.40
2008,06,13,12,28,37.00
2008,06,13,12,29,25.70
2008,06,13,12,30,20.90
2008,06,13,12,31,29.00
2008,06,13,12,32,35.40
2008,06,13,12,33,25.70
2008,06,13,12,34,33.80
2008,06,13,12,35,30.60
2008,06,13,12,36,17.70
2008,06,13,12,37,30.60
2008,06,13,12,38,27.40
2008,06,13,12,39,32.20
2008,06,13,12,40,29.00
2008,06,13,12,41,25.70
2008,06,13,12,42,24.20
2008,06,13,12,43,32.20
2008,06,13,12,44,37.00
2008,06,13,12,45,27.40
2008,06,13,12,46,24.20
2008,06,13,12,47,16.10
2008,06,13,12,48,17.70
2008,06,13,12,49,38.60
2008,06,13,12,50,30.60
2008,06,13,12,51,24.20
2008,06,13,12,52,16.10
2008,06,13,12,53,20.90
2008,06,13,12,54,24.20
2008,06,13,12,55,25.70
2008,06,13,12,56,24.20
2008,06,13,12,57,27.40
2008,06,13,12,58,14.50
2008,06,13,12,59,30.60
2008,06,13,13,00,20.90
2008,06,13,13,01,25.70
2008,06,13,13,02,27.40
2008,06,13,13,03,24.20
2008,06,13,13,04,38.60
2008,06,13,13,05,29.00
2008,06,13,13,06,17.70
2008,06,13,13,07,22.50
2008,06,13,13,08,32.20
2008,06,13,13,09,32.20
2008,06,13,13,10,27.40
2008,06,13,13,11,41.80
2008,06,13,13,12,38.60
2008,06,13,13,13,40.20
2008,06,13,13,14,53.10
2008,06,13,13,15,40.20
2008,06,13,13,16,24.20
2008,06,13,13,17,27.40
2008,06,13,13,18,25.70
2008,06,13,13,19,32.20
2008,06,13,13,20,17.70
2008,06,13,13,21,19.30
2008,06,13,13,22,20.90
2008,06,13,13,23,17.70
2008,06,13,13,24,37.00
2008,06,13,13,25,38.60
2008,06,13,13,26,32.20
2008,06,13,13,27,33.80
2008,06,13,13,28,35.40
2008,06,13,13,29,25.70
2008,06,13,13,30,37.00
2008,06,13,13,31,41.80
2008,06,13,13,32,41.80
2008,06,13,13,33,30.60
2008,06,13,13,34,29.00
2008,06,13,13,35,35.40
2008,06,13,13,36,30.60
2008,06,13,13,37,20.90
2008,06,13,13,38,35.40
2008,06,13,13,39,30.60
2008,06,13,13,40,33.80
2008,06,13,13,41,20.90
2008,06,13,13,42,27.40
2008,06,13,13,43,27.40
2008,06,13,13,44,29.00
2008,06,13,13,45,24.20
2008,06,13,13,46,29.00
2008,06,13,13,47,32.20
2008,06,13,13,48,20.90
2008,06,13,13,49,22.50
2008,06,13,13,50,33.80
2008,06,13,13,51,43.50
2008,06,13,13,52,37.00
2008,06,13,13,53,40.20
2008,06,13,13,54,35.40
2008,06,13,13,55,38.60
2008,06,13,13,56,25.70
2008,06,13,13,57,32.20
2008,06,13,13,58,32.20
2008,06,13,13,59,32.20
2008,06,13,14,00,38.60
2008,06,13,14,01,27.40
2008,06,13,14,02,32.20
2008,06,13,14,03,32.20
2008,06,13,14,04,29.00
2008,06,13,14,05,27.40
2008,06,13,14,06,35.40
2008,06,13,14,07,43.50
2008,06,13,14,08,35.40
2008,06,13,14,09,33.80
2008,06,13,14,10,25.70
2008,06,13,14,11,33.80
2008,06,13,14,12,48.30
2008,06,13,14,13,22.50
2008,06,13,14,14,24.20
2008,06,13,14,15,35.40
2008,06,13,14,16,30.60
2008,06,13,14,17,33.80
2008,06,13,14,18,29.00
2008,06,13,14,19,32.20
2008,06,13,14,20,24.20
2008,06,13,14,21,22.50
2008,06,13,14,22,27.40
2008,06,13,14,23,32.20
2008,06,13,14,24,30.60
2008,06,13,14,25,37.00
2008,06,13,14,26,29.00
2008,06,13,14,27,32.20
2008,06,13,14,28,40.20
2008,06,13,14,29,32.20
2008,06,13,14,30,29.00
2008,06,13,14,31,32.20
2008,06,13,14,32,33.80
2008,06,13,14,33,24.20
2008,06,13,14,34,32.20
2008,06,13,14,35,41.80
2008,06,13,14,36,46.70
2008,06,13,14,37,48.30
2008,06,13,14,38,37.00
2008,06,13,14,39,49.90
2008,06,13,14,40,49.90
2008,06,13,14,41,32.20
2008,06,13,14,42,33.80
2008,06,13,14,43,35.40
2008,06,13,14,44,41.80
2008,06,13,14,45,33.80
2008,06,13,14,46,25.70
2008,06,13,14,47,38.60
2008,06,13,14,48,24.20
2008,06,13,14,49,37.00
2008,06,13,14,50,29.00
2008,06,13,14,51,38.60
2008,06,13,14,52,45.10
2008,06,13,14,53,45.10
2008,06,13,14,54,45.10
2008,06,13,14,55,43.50
2008,06,13,14,56,49.90
2008,06,13,14,57,38.60
2008,06,13,14,58,46.70
2008,06,13,14,59,40.20
2008,06,13,15,00,35.40
2008,06,13,15,01,38.60
2008,06,13,15,02,40.20
2008,06,13,15,03,51.50
2008,06,13,15,04,40.20
2008,06,13,15,05,43.50
2008,06,13,15,06,38.60
2008,06,13,15,07,30.60
2008,06,13,15,08,33.80
2008,06,13,15,09,27.40
2008,06,13,15,10,30.60
2008,06,13,15,11,24.20
2008,06,13,15,12,12.90
2008,06,13,15,13,17.70
2008,06,13,15,14,20.90
2008,06,13,15,15,35.40
2008,06,13,15,16,29.00
2008,06,13,15,17,22.50
2008,06,13,15,18,43.50
2008,06,13,15,19,20.90
2008,06,13,15,20,17.70
2008,06,13,15,21,17.70
2008,06,13,15,22,38.60
2008,06,13,15,23,24.20
2008,06,13,15,24,41.80
2008,06,13,15,25,20.90
2008,06,13,15,26,29.00
2008,06,13,15,27,29.00
2008,06,13,15,28,33.80
2008,06,13,15,29,27.40
2008,06,13,15,30,27.40
2008,06,13,15,31,17.70
2008,06,13,15,32,24.20
2008,06,13,15,33,32.20
2008,06,13,15,34,38.60
2008,06,13,15,35,25.70
2008,06,13,15,36,43.50
2008,06,13,15,37,37.00
2008,06,13,15,38,32.20
2008,06,13,15,39,32.20
2008,06,13,15,40,46.70
2008,06,13,15,41,37.00
2008,06,13,15,42,27.40
2008,06,13,15,43,43.50
2008,06,13,15,44,41.80
2008,06,13,15,45,41.80
2008,06,13,15,46,43.50
2008,06,13,15,47,41.80
2008,06,13,15,48,25.70
2008,06,13,15,49,27.40
2008,06,13,15,50,30.60
2008,06,13,15,51,43.50
2008,06,13,15,52,25.70
2008,06,13,15,53,32.20
2008,06,13,15,54,30.60
2008,06,13,15,55,49.90
2008,06,13,15,56,37.00
2008,06,13,15,57,29.00
2008,06,13,15,58,59.50
2008,06,13,15,59,32.20
2008,06,13,16,00,43.50
2008,06,13,16,01,45.10
2008,06,13,16,02,40.20
2008,06,13,16,03,24.20
2008,06,13,16,04,17.70
2008,06,13,16,05,30.60
2008,06,13,16,06,27.40
2008,06,13,16,07,22.50
2008,06,13,16,08,20.90
2008,06,13,16,09,33.80
2008,06,13,16,10,43.50
2008,06,13,16,11,40.20
2008,06,13,16,12,38.60
2008,06,13,16,13,30.60
2008,06,13,16,14,22.50
2008,06,13,16,15,37.00
2008,06,13,16,16,22.50
2008,06,13,16,17,19.30
2008,06,13,16,18,20.90
2008,06,13,16,19,46.70
2008,06,13,16,20,30.60
2008,06,13,16,21,20.90
2008,06,13,16,22,19.30
2008,06,13,16,23,22.50
2008,06,13,16,24,32.20
2008,06,13,16,25,22.50
2008,06,13,16,26,38.60
2008,06,13,16,27,25.70
2008,06,13,16,28,29.00
2008,06,13,16,29,22.50
2008,06,13,16,30,38.60
2008,06,13,16,31,29.00
2008,06,13,16,32,30.60
2008,06,13,16,33,27.40
2008,06,13,16,34,41.80
2008,06,13,16,35,33.80
2008,06,13,16,36,33.80
2008,06,13,16,37,30.60
2008,06,13,16,38,32.20
2008,06,13,16,39,29.00
2008,06,13,16,40,22.50
2008,06,13,16,41,17.70
2008,06,13,16,42,27.40
2008,06,13,16,43,33.80
2008,06,13,16,44,27.40
2008,06,13,16,45,25.70
2008,06,13,16,46,40.20
2008,06,13,16,47,35.40
2008,06,13,16,48,24.20
2008,06,13,16,49,35.40
2008,06,13,16,50,33.80
2008,06,13,16,51,27.40
2008,06,13,16,52,45.10
2008,06,13,16,53,27.40
2008,06,13,16,54,41.80
2008,06,13,16,55,41.80
2008,06,13,16,56,33.80
2008,06,13,16,57,37.00
2008,06,13,16,58,24.20
2008,06,13,16,59,27.40
2008,06,13,17,00,25.70
2008,06,13,17,01,25.70
2008,06,13,17,02,30.60
2008,06,13,17,03,25.70
2008,06,13,17,04,27.40
2008,06,13,17,05,27.40
2008,06,13,17,06,22.50
2008,06,13,17,07,37.00
2008,06,13,17,08,33.80
2008,06,13,17,09,32.20
2008,06,13,17,10,38.60
2008,06,13,17,11,22.50
2008,06,13,17,12,24.20
2008,06,13,17,13,20.90
2008,06,13,17,14,27.40
2008,06,13,17,15,19.30
2008,06,13,17,16,19.30
2008,06,13,17,17,30.60
2008,06,13,17,18,27.40
2008,06,13,17,19,22.50
2008,06,13,17,20,32.20
2008,06,13,17,21,41.80
2008,06,13,17,22,27.40
2008,06,13,17,23,17.70
2008,06,13,17,24,29.00
2008,06,13,17,25,38.60
2008,06,13,17,26,32.20
2008,06,13,17,27,29.00
2008,06,13,17,28,37.00
2008,06,13,17,29,32.20
2008,06,13,17,30,32.20
2008,06,13,17,31,24.20
2008,06,13,17,32,25.70
2008,06,13,17,33,30.60
2008,06,13,17,34,24.20
2008,06,13,17,35,22.50
2008,06,13,17,36,27.40
2008,06,13,17,37,20.90
2008,06,13,17,38,41.80
2008,06,13,17,39,45.10